Location: Ergnies
(50.0854°N, 2.0375°E)
Time: 15:42:20
(UTC+00:00)

CENTAUR R/B - Pass Details

Date: 14 January 2026
Orbit: 629 x 1552 km, 63.4° (Epoch: 18 February)

Event Time Altitude Azimuth Distance (km) Brightness Sun altitude
Rises 06:46:40 0° 199° (SSW) 3,195 5.3 -9.2°
Reaches altitude 10° 06:48:54 10° 194° (SSW) 2,371 4.7 -8.9°
Maximum altitude 06:54:09 49° 120° (ESE) 1,185 3.6 -8.1°
Drops below altitude 10° 07:00:44 10° 49° (NE) 2,974 5.4 -7.1°
Sets 07:03:50 0° 44° (NE) 4,090 6.0 -6.7°
